This demonstration page uses our WeatherBlox Daily Observations layout. Learn more.

Left ArrowRight Arrow

39.01783, -85.05884

Hourly Observations for February 11, 2016

Temp ( °F °C ) Dew Point ( °F °C ) Humidity (%) Winds ( mph kmh ) Pressure ( in mb ) Visibility ( mi km ) Precip ( " mm )
12:52 am 00:52 Cloudy with Light Snow 14 -10 5 -15 67 67 W 6 9 30.18 1022 9 14 N/A
1:52 am 01:52 Cloudy with Light Snow 14 -10 5 -15 67 67 W 5 7 30.18 1022 9 14 N/A
2:52 am 02:52 Cloudy with Light Snow 14 -10 6 -14.4 71 71 W 3 6 30.18 1022 9 14 N/A
3:52 am 03:52 Cloudy 13 -10.6 6 -14.4 74 74 WSW 3 6 30.18 1022 10 16 N/A
4:52 am 04:52 Cloudy 13 -10.6 6 -14.4 74 74 SW 3 6 30.19 1022 10 16 N/A
5:52 am 05:52 Cloudy 13 -10.6 7 -13.9 77 77 W 5 7 30.21 1023 10 16 N/A
6:52 am 06:52 Cloudy 12 -11.1 6 -14.4 77 77 W 5 7 30.24 1024 10 16 N/A
7:52 am 07:52 Mostly Cloudy 11 -11.7 6 -14.4 81 81 W 5 7 30.27 1025 10 16 N/A
8:52 am 08:52 Mostly Sunny 14 -10 7 -13.9 73 73 N N/A 30.29 1026 10 16 N/A
9:52 am 09:52 Mostly Sunny 17 -8.3 6 -14.4 62 62 NNW 7 11 30.31 1026 10 16 N/A
10:52 am 10:52 Mostly Sunny 19 -7.2 6 -14.4 57 57 N N/A 30.32 1027 10 16 N/A
11:52 am 11:52 Mostly Sunny 21 -6.1 6 -14.4 52 52 N N/A 30.32 1027 10 16 N/A
12:52 pm 12:52 Partly Cloudy 21 -6.1 4 -15.6 47 47 N N/A 30.31 1026 10 16 N/A
1:52 pm 13:52 Partly Cloudy 22 -5.6 5 -15 48 48 VRB 3 6 30.30 1026 10 16 N/A
2:52 pm 14:52 Mostly Sunny 24 -4.4 4 -15.6 42 42 N 3 6 30.29 1026 10 16 N/A
3:52 pm 15:52 Partly Cloudy 25 -3.9 6 -14.4 44 44 W 3 6 30.30 1026 10 16 N/A
4:52 pm 16:52 Mostly Sunny 25 -3.9 5 -15 42 42 N N/A 30.31 1027 10 16 N/A
5:52 pm 17:52 Partly Cloudy 24 -4.4 4 -15.6 42 42 N N/A 30.32 1027 10 16 N/A
6:52 pm 18:52 Partly Cloudy 22 -5.6 6 -14.4 50 50 N N/A 30.33 1027 10 16 N/A
7:52 pm 19:52 Partly Cloudy 20 -6.7 7 -13.9 57 57 NNW 7 11 30.33 1027 10 16 N/A
8:52 pm 20:52 Mostly Cloudy 20 -6.7 7 -13.9 57 57 N 5 7 30.33 1027 10 16 N/A
9:52 pm 21:52 Cloudy 20 -6.7 7 -13.9 57 57 N N/A 30.33 1027 10 16 N/A
10:52 pm 22:52 Mostly Cloudy 20 -6.7 9 -12.8 62 62 E 3 6 30.31 1027 10 16 N/A
11:52 pm 23:52 Mostly Cloudy 20 -6.7 8 -13.3 60 60 E 5 7 30.30 1026 10 16 N/A

Powered by AerisWeather